Regional Weather Roundup
Issued by NWS

Home | Current Version | Previous Version | Graphics & Text | Print | Product List | Glossary Off
Versions: 1 2 3 4 5 6 7 8 9 10 11 12 13 14 15 16 17 18 19 20 21 22 23 24 25 26 27 28 29 30 31 32 33 34 35 36 37 38 39 40 41 42 43 44 45 46 47 48 49 50

000
ASUS43 KMKX 290621
RWRWI

WISCONSIN REGIONAL WEATHER ROUNDUP
NATIONAL WEATHER SERVICE MILWAUKEE/SULLIVAN WI
1200 AM CST SAT NOV 29 2014

NOTE: "FAIR" INDICATES FEW OR NO CLOUDS BELOW 12,000 FEET WITH NO
SIGNIFICANT WEATHER AND/OR OBSTRUCTIONS TO VISIBILITY.

WIZ001-002-006>008-014>016-023>028-290700-
NORTHWEST WISCONSIN

CITY           SKY/WX    TMP DP  RH WIND       PRES   REMARKS
SUPERIOR ARPT  CLOUDY    20  15  81 CALM      29.73F
6HR MIN TEMP:  18; 6HR MAX TEMP:  20;

ASHLAND        CLOUDY    19  15  84 CALM      29.76F
6HR MIN TEMP:  17; 6HR MAX TEMP:  19; 6HR PCP: TRACE;

HAYWARD        CLOUDY    20  15  81 SE8       29.72F WCI  10
6HR MIN TEMP:  16; 6HR MAX TEMP:  20;

SIREN          PTCLDY    18  15  87 SE3       29.72F
6HR MIN TEMP:  17; 6HR MAX TEMP:  19;

CUMBERLAND     PTCLDY    18  14  86 SE8       29.70F WCI   7
RICE LAKE      PTCLDY    19  16  88 SE6       29.73F WCI  10
6HR MIN TEMP:  18; 6HR MAX TEMP:  20;

CHETEK         PTCLDY    18  16  90 E5        29.72F WCI  11
6HR MIN TEMP:  18; 6HR MAX TEMP:  20;

LADYSMITH      CLEAR     20  17  88 CALM      29.76F
6HR MIN TEMP:  17; 6HR MAX TEMP:  22;

EAU CLAIRE     PTCLDY    22  18  85 E8        29.74F WCI  12
6HR MIN TEMP:  21; 6HR MAX TEMP:  24; 6HR PCP: TRACE;

MENOMONIE      PTCLDY    22  19  88 E5        29.73F WCI  16
6HR MIN TEMP:  20; 6HR MAX TEMP:  24;

NEW RICHMOND   PTCLDY    19  17  88 SE7       29.69F WCI  10
6HR MIN TEMP:  19; 6HR MAX TEMP:  21;

OSCEOLA        PTCLDY    20  17  88 SE7       29.73F WCI  11
6HR MIN TEMP:  19; 6HR MAX TEMP:  22;

$$

WIZ003>005-009-010-017-018-290700-
NORTH CENTRAL WISCONSIN

CITY           SKY/WX    TMP DP  RH WIND       PRES   REMARKS
MANITOWISH WTR CLOUDY    16  14  93 S9        29.72F WCI   4
6HR MIN TEMP:  13; 6HR MAX TEMP:  16;

ARBOR VITAE    CLOUDY    18  15  88 S5        29.74F WCI  11
6HR MIN TEMP:  17; 6HR MAX TEMP:  18;

WOODRUFF       CLOUDY    18  15  88 S5        29.74F WCI  11
6HR MIN TEMP:  17; 6HR MAX TEMP:  18;

RHINELANDER    CLOUDY    14  12  92 E3        29.76F
6HR MIN TEMP:  13; 6HR MAX TEMP:  15;

EAGLE RIVER    CLOUDY    16  12  86 CALM      29.75F
6HR MIN TEMP:  11; 6HR MAX TEMP:  16;

LAND O LAKES   CLOUDY    16  14  90 S5        29.75F WCI   9
6HR MIN TEMP:  14; 6HR MAX TEMP:  16;

PHILLIPS       CLOUDY    18  15  88 SE3       29.74F
6HR MIN TEMP:  15; 6HR MAX TEMP:  18;

TOMAHAWK       CLOUDY    16  14  90 CALM      29.76F
6HR MIN TEMP:  15; 6HR MAX TEMP:  17;

MEDFORD        MOCLDY    18  16  91 SE5       29.74F WCI  11
6HR MIN TEMP:  17; 6HR MAX TEMP:  19;

MERRILL        CLOUDY    18  16  92 SE5       29.76F WCI  11
6HR MIN TEMP:  14; 6HR MAX TEMP:  18;

$$

WIZ029-030-035-036-043>047-290700-
CENTRAL WISCONSIN

CITY           SKY/WX    TMP DP  RH WIND       PRES   REMARKS
WAUSAU         CLOUDY    19  17  92 SE7       29.76F WCI  10
6HR MIN TEMP:  17; 6HR MAX TEMP:  19;

MOSINEE        CLOUDY    19  19 100 E5        29.79F WCI  13
MARSHFIELD     CLOUDY    22  18  85 SE6       29.76F WCI  14
6HR MIN TEMP:  21; 6HR MAX TEMP:  22; 6HR PCP: TRACE;

STEVENS POINT  CLOUDY    20  18  93 E6        29.79F WCI  12
6HR MIN TEMP:  18; 6HR MAX TEMP:  20;

WAUPACA        CLOUDY    26  22  87 E3        29.82F
6HR MIN TEMP:  24; 6HR MAX TEMP:  26;

WAUTOMA        CLOUDY    25  24  96 E5        29.81F FOG     WCI  19
6HR MIN TEMP:  23; 6HR MAX TEMP:  27; 6HR PCP: TRACE;

WISC RAPIDS    CLOUDY    24  20  84 E6        29.79F WCI  17
6HR MIN TEMP:  22; 6HR MAX TEMP:  24; 6HR PCP:  0.01;

CAMP DOUGLAS   MOCLDY    23  23 100 SE6       29.77F WCI  15
6HR MIN TEMP:  22; 6HR MAX TEMP:  25; 6HR PCP: TRACE;

$$

WIZ011>013-019>022-031-037>040-048>050-290700-
NORTHEAST WISCONSIN

CITY           SKY/WX    TMP DP  RH WIND       PRES   REMARKS
ANTIGO         CLOUDY    17  16  95 SE7       29.77F FOG     WCI   7
6HR MIN TEMP:  11; 6HR MAX TEMP:  17;

SHAWANO        CLOUDY    23  20  90 CALM      29.84F
6HR MIN TEMP:  21; 6HR MAX TEMP:  23;

OCONTO         CLOUDY    21  20  99 CALM      29.85F
6HR MIN TEMP:  21; 6HR MAX TEMP:  21;

STURGEON BAY   MOCLDY    27  23  86 S6        29.84F WCI  20
6HR MIN TEMP:  23; 6HR MAX TEMP:  28;

GREEN BAY      CLOUDY    24  22  91 CALM      29.84F FOG
6HR MIN TEMP:  23; 6HR MAX TEMP:  26; 6HR PCP:  0.01;

MANITOWOC      MOCLDY    31  29  92 S8        29.86F WCI  23
6HR MIN TEMP:  29; 6HR MAX TEMP:  31; 6HR PCP: TRACE;

APPLETON       CLOUDY    28  27  93 SE3       29.83F FOG
CLINTONVILLE   CLOUDY    23  21  93 CALM      29.82F
OSHKOSH        CLOUDY    30  27  88 MISG      29.82F FOG
6HR MIN TEMP:  26; 6HR MAX TEMP:  30; 6HR PCP:  0.01;

$$

WIZ032>034-041-042-053>061-290700-
SOUTHWEST WISCONSIN

CITY           SKY/WX    TMP DP  RH WIND       PRES   REMARKS
LA CROSSE      PTCLDY    27  21  78 E7        29.75F WCI  19
6HR MIN TEMP:  25; 6HR MAX TEMP:  28;

SPARTA         PTCLDY    23  21  92 SE3       29.77F
6HR MIN TEMP:  23; 6HR MAX TEMP:  26;

VIROQUA        PTCLDY    24  24 100 SE9       29.72F WCI  15
6HR MIN TEMP:  23; 6HR MAX TEMP:  25;

BOSCOBEL       CLEAR     21  19  92 CALM      29.77F FOG
6HR MIN TEMP:  21; 6HR MAX TEMP:  27;

PRAIRIE DU CHI PTCLDY    27  23  87 CALM      29.76F FOG
6HR MIN TEMP:  26; 6HR MAX TEMP:  29;

PLATTEVILLE    CLEAR     26  25  96 CALM      29.76F
6HR MIN TEMP:  26; 6HR MAX TEMP:  29;

$$

WIZ056-057-062-063-064-067-068-290700-
SOUTH CENTRAL WISCONSIN

CITY           SKY/WX    TMP DP  RH WIND       PRES   REMARKS
REEDSBURG      CLOUDY    24  22  95 E5        29.76F FOG     WCI  18
6HR MIN TEMP:  24; 6HR MAX TEMP:  25;

BARABOO/DELLS  CLOUDY    24  22  93 E5        29.77F FOG     WCI  18
6HR MIN TEMP:  24; 6HR MAX TEMP:  25;

LONE ROCK      PTCLDY    26  21  81 E7        29.78F HAZE    WCI  18
6HR MIN TEMP:  26; 6HR MAX TEMP:  31;

MINERAL POINT  CLEAR     30  28  93 SE10      29.75F FOG     WCI  21
MADISON        MOCLDY    30  27  88 S6        29.80F FOG     WCI  24
6HR MIN TEMP:  26; 6HR MAX TEMP:  30;

MIDDLETON      MOCLDY    29  28  96 E5        29.79F WCI  24
6HR MIN TEMP:  28; 6HR MAX TEMP:  30;

WATERTOWN      CLOUDY    29  29  99 SE6       29.81F FOG     WCI  23
6HR MIN TEMP:  27; 6HR MAX TEMP:  29;

MONROE         PTCLDY    30  30 100 SE8       29.78F WCI  23
JANESVILLE     PTCLDY    34  32  93 S7        29.81F WCI  28
$$

WIZ051-052-058>065-066-070>072-290700-
SOUTHEAST WISCONSIN

CITY           SKY/WX    TMP DP  RH WIND       PRES   REMARKS
MILWAUKEE      CLOUDY    33  28  81 S7        29.85F WCI  27
6HR MIN TEMP:  30; 6HR MAX TEMP:  33; 6HR PCP:  0.01;

WAUKESHA       CLOUDY    30  28  93 SE5       29.84F FOG     WCI  25
MILWAUKEE/TIMM CLOUDY    32  28  86 SE5       29.86F WCI  27
RACINE         CLOUDY    35  29  78 S10       29.88F WCI  27
6HR MIN TEMP:  31; 6HR MAX TEMP:  35; 6HR PCP: TRACE;

BURLINGTON     CLOUDY    28  27  94 CALM      29.84F FOG
6HR MIN TEMP:  27; 6HR MAX TEMP:  29;

KENOSHA        CLOUDY    33  29  85 S9        29.86F WCI  25
6HR MIN TEMP:  30; 6HR MAX TEMP:  33; 6HR PCP: TRACE;

FOND DU LAC    CLOUDY    31  27  85 S8        29.82F WCI  23
6HR MIN TEMP:  27; 6HR MAX TEMP:  31; 6HR PCP:  0.03;

SHEBOYGAN      FRZ RAIN  32  29  88 S7        29.85F FOG     WCI  26
6HR MIN TEMP:  28; 6HR MAX TEMP:  32; 6HR PCP:  0.04;

WEST BEND      CLOUDY    30  28  93 CALM      29.84F FOG
JUNEAU         CLOUDY    29  27  94 SE8       29.82F FOG     WCI  21
6HR MIN TEMP:  26; 6HR MAX TEMP:  29;

$$

LSZ147-162-290700-
LAKE SUPERIOR

STATION/POSITION TIME  TEMP    WIND        PRES    WAVE
                       AIR SEA DIR/SP/G            HT/PER
                 (UTC) (F)     (DEG/KT/KT) (MB)    (FT/S)
DEVILS ISLAND    0600   21     170/  7/ 10 1008.6F
PORT WING        0500   18     100/  2/  4 1008.8F
SAXON HARBOR     0540   20        CALM     1008.1F
$$

LMZ867-665-643>646-290700-
LAKE MICHIGAN

STATION/POSITION TIME  TEMP    WIND        PRES    WAVE


USA.gov is the U.S. government's official web portal to all federal, state and local government web resources and services.